This demonstration page uses our WeatherBlox Daily Observations layout. Learn more.

Left ArrowRight Arrow

Hourly Observations for December 23, 2019

Temp ( °F °C ) Dew Point ( °F °C ) Humidity (%) Winds ( mph kmh ) Pressure ( in mb ) Visibility ( mi km ) Precip ( " mm )
12:12 am 00:12 Cloudy with Fog 43 6.1 42 5.6 97 97 Calm 29.93 1013 0 0 0.00 0.00
12:19 am 00:19 Cloudy with Fog 43 6.1 42 5.6 97 97 Calm 29.94 1014 0 0 0.00 0.00
12:25 am 00:25 Cloudy with Fog 43 6.1 42 5.6 97 97 Calm 29.94 1014 1 1 0.00 0.00
12:32 am 00:32 Cloudy with Mist and Fog 43 6.1 42 5.6 97 97 NNW 3 6 29.94 1014 2 2 0.00 0.00
12:36 am 00:36 Cloudy with Mist and Fog 43 6.1 42 5.6 97 97 NNW 3 6 29.94 1014 3 5 0.00 0.00
12:51 am 00:51 Cloudy with Mist and Fog 43 6 43 6 100 100 Calm 29.94 1014 6 10 0.00 0.00
12:53 am 00:53 Cloudy with Mist and Fog 43 6.1 42 5.6 97 97 Calm 29.92 1013 6 10 0.00 0.00
1:53 am 01:53 Cloudy 43 6.1 40 4.4 89 89 VRB 3 6 29.93 1014 10 16 0.00 0.00
2:53 am 02:53 Cloudy 43 6.1 40 4.4 89 89 NNW 5 7 29.94 1014 10 16 0.00 0.00
3:53 am 03:53 Partly Cloudy 42 5.6 38 3.3 85 85 NNW 5 7 29.93 1014 10 16 0.00 0.00
4:53 am 04:53 Clear 40 4.4 37 2.8 89 89 N 5 7 29.94 1014 10 16 0.00 0.00
5:53 am 05:53 Clear 38 3.3 35 1.7 89 89 N 5 7 29.95 1014 10 16 0.00 0.00
6:53 am 06:53 Clear 38 3.3 34 1.1 86 86 NNE 6 9 29.96 1014 10 16 0.00 0.00
7:53 am 07:53 Sunny 38 3.3 34 1.1 86 86 NNE 3 6 29.95 1014 10 16 0.00 0.00
8:53 am 08:53 Sunny 42 5.6 36 2.2 79 79 Calm 29.98 1015 10 16 0.00 0.00
9:53 am 09:53 Sunny 47 8.3 37 2.8 69 69 NNW 7 11 29.95 1014 10 16 0.00 0.00
10:53 am 10:53 Sunny 51 10.6 35 1.7 54 54 N 14 22 29.91 1013 10 16 0.00 0.00
11:53 am 11:53 Sunny 53 11.7 34 1.1 48 48 N 15 24 29.88 1012 10 16 0.00 0.00
12:53 pm 12:53 Sunny 55 12.8 34 1.1 45 45 NNW 9 15 29.85 1011 10 16 0.00 0.00
1:53 pm 13:53 Sunny 56 13.3 34 1.1 44 44 NNW 12 19 29.83 1010 10 16 0.00 0.00
2:53 pm 14:53 Sunny 56 13.3 33 0.6 42 42 N 12 19 29.81 1010 10 16 0.00 0.00
3:53 pm 15:53 Sunny 55 12.8 32 0 42 42 NNW 8 13 29.81 1009 10 16 0.00 0.00
4:53 pm 16:53 Clear 52 11.1 31 -0.6 45 45 NNW 6 9 29.79 1009 10 16 0.00 0.00
5:53 pm 17:53 Clear 49 9.4 32 0 52 52 NW 5 7 29.79 1009 10 16 0.00 0.00
6:53 pm 18:53 Clear 47 8.3 32 0 56 56 NNW 6 9 29.80 1009 10 16 0.00 0.00
7:53 pm 19:53 Clear 46 7.8 32 0 58 58 NNW 6 9 29.82 1010 10 16 0.00 0.00
8:53 pm 20:53 Clear 41 5 32 0 70 70 NNW 3 6 29.81 1010 10 16 0.00 0.00
9:53 pm 21:53 Clear 38 3.3 33 0.6 83 83 Calm 29.83 1010 10 16 0.00 0.00
10:53 pm 22:53 Clear 37 2.8 32 0 82 82 NNE 5 7 29.82 1010 10 16 0.00 0.00
11:53 pm 23:53 Clear 35 1.7 32 0 89 89 Calm 29.83 1010 10 16 0.00 0.00

Powered by AerisWeather